QPF
0.04 0.04 0.04 0.07 0.04 0.03 0.05 0.06 0.07 0.06 0.05 0.04 0.05 0.05 0.05 0.05 0.04 0.03 0.03 0.03 0.02 0.02 0.03 0.03 0.03 0.02 0.02 0.02 0.02 0.01 0.01 0.02 0.02 0.01 0.01 0.01 0.01 0.01 0.01 0.01 0.01 0.00 0.01
0.04 0.03 0.04 0.04 0.05 0.05 0.06 0.05 0.06 0.05 0.06 0.06 0.08 0.06 0.06 0.06 0.04 0.03 0.03 0.03 0.03 0.03 0.03 0.03 0.03 0.03 0.03 0.03 0.03 0.02 0.02 0.03 0.03 0.02 0.01 0.01 0.01 0.01 0.01 0.01 0.01 0.01 0.01
0.03 0.04 0.03 0.04 0.05 0.05 0.04 0.03 0.03 0.04 0.06 0.07 0.07 0.05 0.04 0.03 0.02 0.03 0.03 0.03 0.03 0.03 0.03 0.03 0.03 0.03 0.05 0.05 0.05 0.04 0.04 0.03 0.03 0.03 0.04 0.03 0.03 0.03 0.02 0.02 0.02 0.02 0.01
0.03 0.04 0.03 0.03 0.03 0.03 0.04 0.03 0.03 0.04 0.05 0.07 0.07 0.05 0.04 0.03 0.02 0.03 0.03 0.03 0.03 0.02 0.02 0.03 0.03 0.03 0.05 0.05 0.05 0.06 0.05 0.04 0.03 0.04 0.04 0.04 0.04 0.04 0.04 0.04 0.04 0.03 0.02
0.02 0.03 0.02 0.02 0.02 0.03 0.04 0.03 0.03 0.04 0.05 0.06 0.07 0.06 0.06 0.05 0.04 0.05 0.04 0.03 0.03 0.03 0.03 0.03 0.03 0.03 0.04 0.06 0.07 0.07 0.07 0.05 0.04 0.04 0.03 0.04 0.05 0.06 0.05 0.04 0.03 0.03 0.03
0.04 0.03 0.03 0.03 0.03 0.03 0.03 0.03 0.03 0.03 0.04 0.05 0.06 0.07 0.07 0.07 0.07 0.06 0.05 0.06 0.06 0.06 0.07 0.05 0.03 0.03 0.04 0.06 0.07 0.07 0.07 0.07 0.07 0.06 0.05 0.06 0.06 0.06 0.06 0.05 0.04 0.03 0.03
0.04 0.04 0.04 0.04 0.03 0.03 0.02 0.03 0.03 0.02 0.03 0.05 0.07 0.08 0.08 0.10 0.09 0.09 0.09 0.12 0.10 0.09 0.11 0.10 0.09 0.08 0.06 0.06 0.05 0.06 0.07 0.08 0.08 0.07 0.07 0.08 0.09 0.07 0.06 0.04 0.04 0.03 0.03
0.06 0.04 0.04 0.05 0.04 0.02 0.02 0.03 0.04 0.03 0.03 0.07 0.10 0.09 0.08 0.10 0.11 0.10 0.09 0.10 0.10 0.09 0.09 0.11 0.12 0.11 0.08 0.06 0.05 0.04 0.06 0.08 0.09 0.09 0.09 0.09 0.10 0.10 0.10 0.08 0.06 0.05 0.04
0.07 0.05 0.04 0.04 0.04 0.03 0.02 0.03 0.05 0.04 0.04 0.08 0.12 0.13 0.11 0.09 0.10 0.12 0.14 0.12 0.11 0.09 0.08 0.08 0.07 0.07 0.06 0.05 0.05 0.05 0.05 0.05 0.09 0.11 0.12 0.12 0.10 0.10 0.09 0.10 0.09 0.07 0.06
0.06 0.05 0.06 0.05 0.04 0.03 0.04 0.05 0.05 0.06 0.05 0.07 0.11 0.14 0.17 0.16 0.11 0.09 0.12 0.13 0.15 0.12 0.09 0.08 0.09 0.08 0.08 0.07 0.06 0.06 0.04 0.04 0.07 0.10 0.14 0.14 0.12 0.10 0.08 0.09 0.08 0.08 0.08
0.03 0.04 0.04 0.05 0.05 0.04 0.04 0.05 0.07 0.07 0.06 0.06 0.07 0.09 0.13 0.15 0.12 0.10 0.07 0.07 0.11 0.11 0.14 0.16 0.16 0.20 0.17 0.12 0.13 0.13 0.13 0.13 0.12 0.12 0.15 0.15 0.14 0.12 0.11 0.10 0.10 0.11 0.11
0.02 0.03 0.05 0.05 0.05 0.04 0.04 0.03 0.05 0.06 0.05 0.06 0.06 0.05 0.06 0.09 0.09 0.09 0.06 0.04 0.05 0.06 0.10 0.11 0.17 0.27 0.29 0.29 0.26 0.23 0.23 0.24 0.18 0.11 0.10 0.11 0.12 0.11 0.11 0.11 0.13 0.15 0.16
0.02 0.04 0.05 0.05 0.06 0.07 0.05 0.05 0.06 0.05 0.04 0.05 0.05 0.05 0.05 0.05 0.05 0.05 0.05 0.03 0.03 0.05 0.08 0.09 0.14 0.16 0.24 0.24 0.21 0.22 0.25 0.25 0.19 0.13 0.09 0.07 0.07 0.06 0.06 0.06 0.08 0.09 0.11
0.02 0.03 0.06 0.08 0.09 0.08 0.07 0.09 0.08 0.05 0.04 0.04 0.04 0.05 0.05 0.06 0.06 0.07 0.07 0.06 0.05 0.06 0.07 0.06 0.07 0.08 0.11 0.13 0.16 0.21 0.18 0.15 0.12 0.09 0.07 0.05 0.04 0.04 0.04 0.04 0.05 0.05 0.05
0.01 0.02 0.03 0.07 0.08 0.07 0.07 0.09 0.10 0.08 0.05 0.05 0.05 0.05 0.04 0.04 0.07 0.08 0.09 0.08 0.08 0.07 0.06 0.05 0.06 0.06 0.06 0.08 0.10 0.11 0.14 0.18 0.15 0.10 0.07 0.06 0.04 0.03 0.04 0.05 0.05 0.05 0.05
0.01 0.01 0.03 0.03 0.03 0.04 0.06 0.09 0.07 0.07 0.06 0.05 0.05 0.06 0.05 0.06 0.06 0.06 0.06 0.07 0.08 0.07 0.06 0.07 0.07 0.06 0.07 0.07 0.09 0.08 0.09 0.12 0.15 0.14 0.11 0.08 0.05 0.04 0.04 0.04 0.04 0.04 0.04
0.02 0.02 0.02 0.01 0.01 0.02 0.03 0.04 0.03 0.03 0.04 0.04 0.04 0.05 0.05 0.06 0.06 0.06 0.05 0.06 0.08 0.08 0.07 0.08 0.07 0.07 0.07 0.08 0.08 0.06 0.05 0.04 0.05 0.07 0.08 0.07 0.05 0.04 0.03 0.03 0.03 0.02 0.02
0.02 0.02 0.01 0.00 0.01 0.02 0.02 0.02 0.03 0.05 0.06 0.05 0.04 0.04 0.04 0.05 0.05 0.06 0.05 0.04 0.04 0.04 0.05 0.06 0.06 0.05 0.05 0.05 0.06 0.05 0.04 0.04 0.05 0.07 0.05 0.04 0.03 0.02 0.02 0.02 0.02 0.02 0.02
0.03 0.02 0.01 0.00 0.01 0.02 0.03 0.04 0.05 0.06 0.06 0.05 0.04 0.04 0.03 0.04 0.03 0.04 0.03 0.03 0.03 0.02 0.03 0.04 0.03 0.04 0.04 0.04 0.05 0.04 0.04 0.04 0.04 0.03 0.02 0.02 0.01 0.02 0.02 0.02 0.02 0.03 0.03
0.03 0.02 0.02 0.01 0.02 0.03 0.03 0.04 0.04 0.04 0.04 0.03 0.03 0.03 0.03 0.03 0.03 0.03 0.02 0.02 0.02 0.02 0.03 0.03 0.03 0.04 0.04 0.05 0.05 0.04 0.03 0.03 0.02 0.02 0.01 0.01 0.02 0.02 0.03 0.03 0.03 0.03 0.02
0.03 0.03 0.03 0.03 0.03 0.03 0.03 0.03 0.03 0.03 0.03 0.02 0.02 0.02 0.03 0.02 0.02 0.02 0.03 0.03 0.02 0.02 0.02 0.02 0.03 0.03 0.04 0.04 0.04 0.03 0.03 0.03 0.03 0.03 0.03 0.02 0.03 0.03 0.04 0.04 0.03 0.03 0.02
0.04 0.03 0.03 0.03 0.03 0.03 0.04 0.04 0.03 0.02 0.02 0.02 0.02 0.02 0.02 0.02 0.01 0.02 0.03 0.03 0.02 0.02 0.01 0.02 0.02 0.02 0.02 0.02 0.02 0.03 0.03 0.04 0.05 0.04 0.03 0.03 0.03 0.03 0.03 0.03 0.04 0.03 0.02
0.03 0.04 0.04 0.03 0.03 0.04 0.05 0.04 0.04 0.02 0.02 0.02 0.02 0.02 0.01 0.01 0.01 0.01 0.01 0.01 0.01 0.01 0.01 0.01 0.01 0.01 0.01 0.01 0.03 0.04 0.04 0.04 0.04 0.04 0.03 0.02 0.02 0.02 0.02 0.02 0.03 0.02 0.02
0.02 0.02 0.03 0.03 0.03 0.04 0.05 0.04 0.03 0.02 0.01 0.01 0.01 0.00 0.00 0.00 0.00 0.01 0.01 0.01 0.01 0.01 0.01 0.01 0.01 0.01 0.01 0.01 0.02 0.02 0.02 0.02 0.02 0.02 0.03 0.02 0.01 0.02 0.01 0.01 0.01 0.01 0.01
0.01 0.01 0.02 0.02 0.02 0.02 0.02 0.02 0.01 0.01 0.01 0.00 0.00 0.01 0.01 0.00 0.01 0.01 0.01 0.01 0.01 0.01 0.01 0.01 0.01 0.01 0.01 0.01 0.01 0.01 0.02 0.03 0.02 0.02 0.02 0.01 0.01 0.02 0.01 0.01 0.01 0.01 0.01
0.01 0.01 0.01 0.01 0.01 0.01 0.01 0.01 0.01 0.01 0.01 0.01 0.01 0.01 0.00 0.00 0.00 0.00 0.00 0.00 0.01 0.01 0.01 0.01 0.01 0.01 0.01 0.01 0.01 0.01 0.01 0.02 0.02 0.02 0.01 0.01 0.02 0.01 0.01 0.01 0.01 0.00 0.00
MSLP
1017.27 1017.43 1017.52 1017.56 1017.57 1017.56 1017.56 1017.58 1017.62 1017.68 1017.77 1017.89 1018.01 1018.16 1018.32 1018.50 1018.70 1018.90 1019.10 1019.29 1019.48 1019.64 1019.79 1019.93 1020.06 1020.19 1020.31 1020.43 1020.54 1020.63 1020.70 1020.75 1020.79 1020.82 1020.85 1020.89 1020.95 1021.01 1021.06 1021.09 1021.10 1021.08 1021.02
1017.20 1017.35 1017.45 1017.51 1017.54 1017.56 1017.59 1017.63 1017.70 1017.78 1017.89 1018.01 1018.14 1018.28 1018.42 1018.56 1018.70 1018.85 1018.99 1019.13 1019.26 1019.41 1019.55 1019.71 1019.87 1020.03 1020.19 1020.33 1020.45 1020.53 1020.59 1020.62 1020.64 1020.65 1020.68 1020.73 1020.79 1020.86 1020.93 1020.97 1020.99 1020.97 1020.93
1017.02 1017.15 1017.26 1017.35 1017.42 1017.50 1017.58 1017.68 1017.79 1017.91 1018.04 1018.17 1018.30 1018.43 1018.55 1018.66 1018.75 1018.83 1018.90 1018.97 1019.05 1019.15 1019.28 1019.43 1019.60 1019.78 1019.95 1020.11 1020.23 1020.31 1020.35 1020.37 1020.38 1020.39 1020.41 1020.47 1020.54 1020.63 1020.72 1020.78 1020.82 1020.82 1020.80
1016.77 1016.88 1017.00 1017.13 1017.27 1017.42 1017.57 1017.73 1017.88 1018.04 1018.20 1018.35 1018.49 1018.62 1018.73 1018.81 1018.86 1018.89 1018.90 1018.91 1018.93 1018.97 1019.05 1019.18 1019.33 1019.50 1019.67 1019.82 1019.93 1020.00 1020.03 1020.04 1020.04 1020.05 1020.08 1020.14 1020.24 1020.34 1020.45 1020.54 1020.61 1020.64 1020.64
1016.50 1016.60 1016.74 1016.92 1017.12 1017.34 1017.56 1017.78 1017.98 1018.17 1018.35 1018.52 1018.68 1018.82 1018.93 1019.02 1019.06 1019.06 1019.04 1019.00 1018.97 1018.96 1018.98 1019.05 1019.16 1019.29 1019.42 1019.54 1019.63 1019.68 1019.70 1019.70 1019.69 1019.70 1019.74 1019.82 1019.93 1020.05 1020.18 1020.29 1020.38 1020.43 1020.46
1016.26 1016.34 1016.51 1016.73 1017.00 1017.29 1017.56 1017.82 1018.05 1018.26 1018.45 1018.64 1018.82 1018.99 1019.14 1019.26 1019.33 1019.35 1019.34 1019.28 1019.22 1019.16 1019.13 1019.13 1019.17 1019.24 1019.32 1019.39 1019.44 1019.46 1019.45 1019.43 1019.42 1019.43 1019.48 1019.56 1019.68 1019.82 1019.96 1020.08 1020.18 1020.25 1020.29
1016.06 1016.14 1016.34 1016.60 1016.92 1017.25 1017.56 1017.83 1018.07 1018.28 1018.47 1018.67 1018.88 1019.09 1019.30 1019.49 1019.64 1019.73 1019.76 1019.73 1019.67 1019.59 1019.52 1019.46 1019.43 1019.43 1019.43 1019.44 1019.44 1019.41 1019.38 1019.34 1019.32 1019.32 1019.37 1019.45 1019.57 1019.71 1019.84 1019.96 1020.05 1020.11 1020.14
1015.91 1016.01 1016.22 1016.52 1016.86 1017.21 1017.52 1017.79 1018.01 1018.19 1018.38 1018.58 1018.81 1019.08 1019.37 1019.66 1019.92 1020.11 1020.23 1020.28 1020.26 1020.20 1020.11 1020.02 1019.93 1019.86 1019.80 1019.74 1019.68 1019.61 1019.54 1019.48 1019.44 1019.43 1019.46 1019.53 1019.64 1019.75 1019.87 1019.97 1020.03 1020.07 1020.07
1015.81 1015.92 1016.14 1016.46 1016.80 1017.14 1017.44 1017.67 1017.85 1018.00 1018.15 1018.35 1018.61 1018.93 1019.31 1019.71 1020.09 1020.42 1020.66 1020.82 1020.88 1020.87 1020.80 1020.71 1020.61 1020.50 1020.39 1020.29 1020.18 1020.06 1019.95 1019.86 1019.79 1019.76 1019.77 1019.82 1019.89 1019.98 1020.06 1020.13 1020.16 1020.15 1020.12
1015.73 1015.84 1016.07 1016.38 1016.72 1017.04 1017.29 1017.48 1017.61 1017.71 1017.83 1018.01 1018.29 1018.66 1019.10 1019.60 1020.10 1020.56 1020.93 1021.21 1021.38 1021.46 1021.47 1021.42 1021.34 1021.23 1021.12 1020.99 1020.85 1020.71 1020.57 1020.44 1020.34 1020.28 1020.25 1020.27 1020.31 1020.36 1020.41 1020.43 1020.43 1020.38 1020.32
1015.64 1015.75 1015.98 1016.29 1016.61 1016.89 1017.11 1017.24 1017.32 1017.38 1017.46 1017.62 1017.89 1018.28 1018.78 1019.34 1019.93 1020.49 1020.98 1021.38 1021.67 1021.86 1021.97 1022.01 1021.99 1021.94 1021.86 1021.75 1021.61 1021.46 1021.30 1021.14 1021.01 1020.91 1020.85 1020.83 1020.84 1020.86 1020.88 1020.87 1020.83 1020.76 1020.67
1015.52 1015.64 1015.87 1016.16 1016.46 1016.72 1016.91 1017.01 1017.05 1017.07 1017.12 1017.25 1017.50 1017.88 1018.38 1018.96 1019.59 1020.21 1020.78 1021.28 1021.68 1021.99 1022.22 1022.38 1022.48 1022.52 1022.52 1022.46 1022.36 1022.22 1022.06 1021.88 1021.72 1021.58 1021.49 1021.44 1021.42 1021.42 1021.42 1021.40 1021.36 1021.28 1021.17
1015.38 1015.49 1015.72 1016.01 1016.30 1016.55 1016.73 1016.82 1016.85 1016.86 1016.89 1016.99 1017.20 1017.54 1018.00 1018.55 1019.16 1019.78 1020.38 1020.93 1021.42 1021.85 1022.21 1022.51 1022.75 1022.92 1023.03 1023.07 1023.03 1022.93 1022.78 1022.59 1022.41 1022.24 1022.12 1022.05 1022.01 1022.01 1022.01 1022.00 1021.97 1021.90 1021.81
1015.21 1015.34 1015.57 1015.86 1016.16 1016.42 1016.61 1016.73 1016.77 1016.78 1016.81 1016.89 1017.05 1017.33 1017.71 1018.18 1018.72 1019.29 1019.86 1020.43 1020.97 1021.48 1021.97 1022.41 1022.81 1023.14 1023.39 1023.54 1023.59 1023.54 1023.42 1023.24 1023.05 1022.86 1022.72 1022.64 1022.60 1022.60 1022.63 1022.65 1022.65 1022.61 1022.54
1015.06 1015.20 1015.43 1015.73 1016.05 1016.35 1016.58 1016.73 1016.82 1016.86 1016.90 1016.97 1017.09 1017.29 1017.58 1017.94 1018.37 1018.84 1019.34 1019.88 1020.43 1021.01 1021.59 1022.17 1022.72 1023.20 1023.60 1023.89 1024.04 1024.07 1023.99 1023.84 1023.64 1023.46 1023.31 1023.22 1023.19 1023.22 1023.27 1023.33 1023.37 1023.38 1023.34
1014.97 1015.10 1015.35 1015.66 1016.00 1016.33 1016.61 1016.82 1016.97 1017.06 1017.13 1017.20 1017.30 1017.43 1017.62 1017.86 1018.16 1018.51 1018.92 1019.39 1019.93 1020.53 1021.19 1021.87 1022.55 1023.19 1023.73 1024.15 1024.42 1024.54 1024.52 1024.40 1024.23 1024.05 1023.90 1023.82 1023.81 1023.85 1023.94 1024.04 1024.12 1024.16 1024.16
1014.95 1015.09 1015.33 1015.65 1016.01 1016.37 1016.69 1016.96 1017.17 1017.32 1017.44 1017.53 1017.61 1017.70 1017.81 1017.95 1018.13 1018.36 1018.66 1019.05 1019.54 1020.14 1020.84 1021.60 1022.39 1023.14 1023.82 1024.36 1024.74 1024.95 1025.01 1024.94 1024.81 1024.66 1024.53 1024.46 1024.46 1024.52 1024.63 1024.75 1024.86 1024.93 1024.95
1015.04 1015.17 1015.40 1015.71 1016.07 1016.43 1016.78 1017.09 1017.34 1017.55 1017.72 1017.85 1017.94 1018.02 1018.08 1018.15 1018.23 1018.36 1018.57 1018.88 1019.31 1019.89 1020.58 1021.38 1022.24 1023.08 1023.86 1024.51 1024.99 1025.30 1025.45 1025.46 1025.38 1025.26 1025.17 1025.12 1025.13 1025.21 1025.32 1025.45 1025.57 1025.64 1025.67
1015.25 1015.36 1015.56 1015.84 1016.16 1016.50 1016.84 1017.16 1017.45 1017.70 1017.91 1018.08 1018.21 1018.30 1018.36 1018.39 1018.42 1018.49 1018.62 1018.85 1019.22 1019.75 1020.42 1021.22 1022.09 1022.99 1023.83 1024.56 1025.15 1025.55 1025.79 1025.89 1025.88 1025.83 1025.77 1025.75 1025.78 1025.86 1025.97 1026.09 1026.19 1026.25 1026.26
1015.55 1015.64 1015.80 1016.02 1016.29 1016.58 1016.87 1017.17 1017.46 1017.73 1017.98 1018.19 1018.37 1018.50 1018.58 1018.62 1018.64 1018.67 1018.75 1018.92 1019.22 1019.68 1020.30 1021.05 1021.91 1022.81 1023.69 1024.48 1025.14 1025.63 1025.97 1026.16 1026.24 1026.27 1026.27 1026.28 1026.33 1026.41 1026.50 1026.60 1026.67 1026.71 1026.70
1015.93 1015.99 1016.10 1016.26 1016.45 1016.66 1016.89 1017.14 1017.39 1017.66 1017.92 1018.18 1018.41 1018.59 1018.72 1018.80 1018.83 1018.85 1018.90 1019.02 1019.26 1019.64 1020.17 1020.85 1021.65 1022.52 1023.39 1024.20 1024.91 1025.49 1025.92 1026.21 1026.39 1026.50 1026.57 1026.63 1026.70 1026.78 1026.86 1026.94 1026.98 1026.99 1026.95
1016.33 1016.37 1016.45 1016.54 1016.65 1016.78 1016.93 1017.10 1017.30 1017.54 1017.81 1018.09 1018.36 1018.60 1018.79 1018.92 1018.99 1019.02 1019.05 1019.13 1019.29 1019.58 1020.01 1020.59 1021.30 1022.10 1022.92 1023.73 1024.47 1025.10 1025.60 1025.99 1026.26 1026.46 1026.60 1026.72 1026.82 1026.92 1027.00 1027.05 1027.08 1027.07 1027.02
1016.70 1016.75 1016.80 1016.85 1016.90 1016.94 1017.01 1017.10 1017.24 1017.44 1017.69 1017.98 1018.28 1018.57 1018.81 1018.99 1019.10 1019.15 1019.17 1019.21 1019.30 1019.50 1019.82 1020.28 1020.88 1021.57 1022.33 1023.09 1023.82 1024.48 1025.05 1025.50 1025.86 1026.14 1026.36 1026.54 1026.68 1026.79 1026.88 1026.94 1026.96 1026.95 1026.90
1016.99 1017.07 1017.13 1017.16 1017.17 1017.16 1017.16 1017.18 1017.26 1017.41 1017.64 1017.92 1018.24 1018.55 1018.83 1019.05 1019.19 1019.26 1019.28 1019.28 1019.31 1019.41 1019.62 1019.96 1020.44 1021.02 1021.68 1022.38 1023.08 1023.73 1024.32 1024.82 1025.24 1025.58 1025.86 1026.09 1026.27 1026.42 1026.54 1026.61 1026.65 1026.66 1026.64
1017.17 1017.30 1017.39 1017.43 1017.43 1017.39 1017.35 1017.33 1017.37 1017.47 1017.66 1017.93 1018.24 1018.56 1018.86 1019.10 1019.27 1019.34 1019.36 1019.33 1019.32 1019.35 1019.47 1019.70 1020.05 1020.53 1021.09 1021.70 1022.34 1022.96 1023.53 1024.05 1024.49 1024.86 1025.18 1025.45 1025.67 1025.85 1026.00 1026.12 1026.19 1026.24 1026.25
1017.19 1017.38 1017.53 1017.61 1017.62 1017.59 1017.54 1017.50 1017.50 1017.58 1017.74 1017.97 1018.27 1018.58 1018.88 1019.13 1019.30 1019.39 1019.41 1019.37 1019.33 1019.31 1019.37 1019.52 1019.79 1020.16 1020.63 1021.16 1021.71 1022.27 1022.80 1023.29 1023.72 1024.10 1024.42 1024.71 1024.95 1025.17 1025.35 1025.51 1025.63 1025.73 1025.80
Thickness
5748 5748 5747 5747 5747 5747 5746 5746 5746 5746 5746 5745 5744 5743 5742 5741 5740 5739 5738 5737 5735 5734 5732 5731 5729 5728 5726 5724 5723 5721 5720 5718 5717 5715 5713 5712 5710 5709 5708 5707 5705 5705 5704
5749 5748 5748 5747 5747 5747 5747 5747 5747 5746 5746 5745 5744 5744 5743 5742 5741 5740 5738 5737 5736 5734 5733 5731 5730 5728 5726 5725 5723 5722 5720 5719 5717 5715 5714 5712 5711 5709 5708 5707 5705 5704 5703
5750 5749 5748 5747 5747 5748 5747 5747 5747 5746 5746 5745 5744 5744 5743 5742 5741 5739 5738 5737 5736 5734 5733 5732 5730 5728 5727 5725 5724 5722 5721 5719 5718 5716 5714 5713 5711 5710 5708 5707 5706 5704 5703
5750 5750 5749 5748 5748 5748 5748 5747 5747 5745 5744 5743 5742 5742 5742 5741 5740 5739 5738 5737 5735 5734 5733 5732 5730 5729 5727 5726 5724 5723 5721 5719 5718 5716 5715 5713 5711 5710 5708 5707 5706 5705 5703
5751 5750 5749 5749 5749 5748 5748 5748 5746 5744 5742 5741 5741 5741 5741 5741 5740 5739 5737 5736 5735 5734 5733 5731 5730 5729 5727 5726 5724 5722 5721 5719 5718 5716 5714 5713 5712 5710 5709 5707 5706 5705 5703
5751 5750 5750 5749 5749 5748 5747 5747 5745 5744 5743 5741 5741 5740 5739 5739 5739 5738 5737 5736 5735 5734 5732 5731 5730 5728 5727 5725 5724 5722 5721 5719 5717 5716 5714 5713 5711 5710 5709 5707 5706 5705 5703
5752 5751 5750 5749 5749 5747 5747 5746 5745 5743 5741 5741 5737 5734 5735 5738 5737 5737 5737 5736 5735 5734 5732 5731 5729 5727 5725 5724 5722 5721 5720 5719 5717 5715 5713 5712 5711 5709 5708 5707 5705 5704 5703
5752 5752 5750 5749 5749 5747 5746 5745 5744 5741 5740 5740 5735 5729 5725 5727 5733 5736 5735 5734 5733 5732 5731 5729 5728 5726 5724 5722 5721 5720 5719 5717 5715 5713 5712 5710 5709 5708 5706 5705 5704 5703 5702
5753 5752 5751 5750 5749 5748 5745 5745 5744 5741 5737 5738 5738 5731 5723 5719 5723 5728 5731 5731 5730 5729 5728 5727 5726 5724 5722 5720 5719 5718 5717 5716 5714 5713 5711 5708 5706 5705 5704 5703 5702 5701 5699
5753 5752 5751 5750 5749 5748 5747 5746 5745 5743 5740 5736 5736 5736 5733 5729 5721 5718 5723 5726 5727 5725 5725 5724 5722 5721 5719 5717 5715 5714 5714 5713 5710 5708 5707 5705 5704 5702 5701 5700 5699 5698 5697
5752 5751 5751 5750 5749 5748 5747 5746 5745 5743 5741 5738 5736 5734 5732 5729 5727 5719 5715 5718 5720 5721 5721 5721 5719 5717 5716 5714 5712 5710 5709 5707 5705 5704 5702 5701 5700 5698 5697 5696 5695 5695 5694
5751 5751 5750 5749 5748 5747 5746 5745 5744 5743 5741 5739 5737 5735 5732 5727 5724 5721 5716 5714 5713 5715 5717 5716 5715 5714 5712 5710 5707 5705 5704 5702 5700 5699 5697 5696 5694 5693 5692 5691 5690 5690 5689
5749 5749 5749 5747 5747 5745 5744 5744 5742 5741 5740 5738 5736 5735 5733 5731 5729 5724 5718 5714 5711 5711 5711 5711 5711 5710 5708 5705 5702 5700 5698 5696 5694 5693 5691 5689 5687 5686 5685 5684 5683 5683 5683
5749 5749 5748 5746 5745 5744 5743 5741 5740 5739 5737 5736 5736 5734 5733 5731 5730 5726 5721 5714 5708 5705 5705 5705 5706 5705 5703 5700 5696 5694 5692 5690 5688 5687 5684 5682 5680 5679 5678 5677 5675 5675 5674
5749 5748 5746 5744 5743 5741 5740 5739 5736 5735 5734 5733 5732 5731 5730 5729 5728 5726 5722 5718 5710 5701 5699 5699 5698 5698 5696 5694 5691 5688 5685 5683 5681 5679 5676 5674 5672 5670 5669 5668 5667 5665 5665
5748 5746 5744 5742 5740 5738 5737 5735 5733 5731 5730 5729 5728 5727 5726 5725 5724 5722 5720 5717 5713 5706 5698 5696 5694 5692 5690 5687 5683 5681 5678 5675 5672 5670 5667 5665 5663 5662 5660 5658 5657 5656 5655
5746 5744 5742 5739 5737 5735 5733 5731 5728 5727 5725 5724 5723 5722 5721 5721 5718 5717 5715 5712 5708 5704 5695 5691 5689 5687 5683 5679 5675 5672 5669 5666 5663 5661 5658 5657 5655 5652 5651 5649 5647 5646 5645
5744 5741 5739 5736 5734 5731 5729 5727 5724 5722 5720 5718 5717 5717 5715 5715 5713 5711 5708 5706 5703 5700 5694 5686 5682 5679 5675 5672 5668 5665 5661 5658 5655 5652 5650 5648 5646 5643 5641 5639 5637 5636 5634
5741 5738 5735 5732 5729 5727 5725 5723 5720 5717 5715 5714 5712 5711 5709 5709 5706 5704 5702 5699 5696 5694 5689 5683 5676 5672 5668 5665 5661 5657 5653 5650 5647 5644 5641 5639 5637 5634 5632 5629 5627 5626 5624
5737 5734 5731 5728 5725 5723 5721 5718 5715 5712 5710 5708 5707 5705 5704 5702 5699 5698 5695 5692 5689 5685 5681 5676 5670 5665 5661 5658 5654 5649 5644 5641 5638 5636 5633 5630 5628 5625 5623 5620 5618 5616 5614
5733 5729 5726 5723 5721 5718 5716 5713 5710 5707 5704 5702 5700 5699 5698 5697 5694 5692 5689 5685 5682 5678 5673 5668 5662 5658 5654 5650 5646 5642 5637 5633 5630 5627 5624 5621 5619 5616 5614 5611 5608 5606 5604
5728 5725 5721 5718 5715 5713 5710 5708 5705 5701 5698 5695 5693 5691 5690 5688 5687 5685 5683 5680 5677 5671 5666 5661 5655 5651 5647 5644 5640 5636 5630 5625 5621 5619 5616 5612 5610 5607 5605 5602 5599 5597 5594
5723 5719 5716 5712 5709 5706 5705 5702 5699 5695 5692 5688 5686 5683 5682 5680 5678 5676 5673 5671 5668 5665 5662 5657 5650 5645 5641 5638 5634 5629 5625 5620 5615 5613 5609 5604 5601 5597 5596 5593 5590 5587 5585
5719 5714 5710 5706 5703 5701 5699 5696 5693 5689 5685 5682 5679 5676 5673 5671 5670 5667 5664 5661 5657 5655 5652 5649 5645 5641 5638 5633 5629 5624 5619 5613 5608 5604 5601 5595 5592 5589 5587 5584 5581 5578 5576
5714 5709 5705 5701 5697 5694 5692 5690 5687 5682 5677 5674 5671 5669 5666 5663 5661 5659 5655 5651 5648 5645 5643 5640 5637 5633 5629 5625 5621 5616 5610 5604 5598 5595 5591 5587 5583 5580 5577 5575 5573 5570 5567
5709 5704 5699 5695 5691 5687 5685 5683 5680 5675 5669 5666 5663 5660 5658 5655 5653 5650 5646 5642 5638 5635 5633 5630 5626 5623 5619 5616 5612 5608 5603 5596 5590 5586 5583 5579 5575 5571 5568 5567 5565 5562 5559